Location: Coffee Ditch
(40.9640°N, 122.7500°W)
Time: 07:13:16
(UTC+00:00)

COSMOS 2455 - Pass Details

Date: 08 September 2024
Orbit: 898 x 910 km, 67.1° (Epoch: 05 October)

Event Time Altitude Azimuth Distance (km) Brightness Sun altitude
Exits shadow 12:37:43 17° 234° (SW) 2,144 4.2 -13.2°
Maximum altitude 12:42:16 50° 305° (NW) 1,141 3.1 -12.4°
Drops below altitude 10° 12:48:08 10° 20° (NNE) 2,603 5.8 -11.4°
Sets 12:50:45 0° 26° (NNE) 3,548 6.6 -10.9°
